[[{"header":{"parameterUnit":"m.s-1","parameterCategory":1,"la1":30.2991,"la2":30.254,"lo1":-89.0895,"lo2":-89.0444,"dy":0.0017,"dx":0.0017,"nx":28,"ny":28,"refTime":"2024-10-05T21:00:00:Z","depth":0,"parameterNumber":2,"parameterNumberName":"U-component_of_WINDS"},"data":[0,0,0,0,0,0,0,0,0,0,0,0,0,0,0,0,0,0,0,0,0,0,0,0,0,0,0,0,0,0,0,0,0,0,0,0,0,0,0,0,0,0,0,0,0,0,0,0,0,0,0,0,0,0,0,0,0,0,-3.6599,-3.6601,0,-3.6764,-3.6766,-3.6768,-3.6701,-3.6697,-3.6694,-3.669,-3.6858,-3.6866,-3.6874,0,0,0,0,0,0,0,0,0,0,0,0,0,-3.6226,-3.6233,-3.6599,-3.6601,-3.6603,-3.6764,-3.6766,-3.6769,-3.6702,-3.6697,-3.6693,-3.6688,-3.6855,-3.6865,-3.6875,0,0,0,0,0,0,0,0,0,0,0,0,0,-3.639,-3.6236,-3.6599,-3.6589,-3.659,-3.6764,-3.6766,-3.6769,-3.6703,-3.6697,-3.6691,-3.6686,-3.6852,-3.6864,-3.6876,-3.7068,0,0,-3.6913,-3.6919,0,0,0,0,0,0,0,0,-3.638,-3.6403,-3.6589,-3.659,-3.6592,-3.6706,-3.6697,-3.6869,-3.6704,-3.666,-3.669,-3.6683,-3.6812,-3.6827,-3.6871,-3.7076,-3.7083,-3.6914,-3.6922,-3.6927,-3.693,0,0,0,0,0,0,0,-3.6369,-3.6396,-3.6664,-3.6591,-3.6593,-3.6577,-3.6594,-3.6729,-3.6767,-3.6664,-3.6659,-3.668,-3.6812,-3.686,-3.6875,-3.7086,-3.6914,-3.6925,-3.6932,-3.6937,-3.7459,-3.7465,0,0,0,0,0,0,-3.6358,-3.6387,-3.6659,-3.6669,-3.6469,-3.6589,-3.6607,-3.6675,-3.6765,-3.6773,-3.6684,-3.6676,-3.6842,-3.686,-3.688,-3.7113,-3.6927,-3.6938,-3.6945,-3.7452,-3.746,-3.7467,0,0,0,0,0,0,-3.635,-3.6382,-3.6652,-3.6527,-3.656,-3.6601,-3.6678,-3.6682,-3.6729,-3.6781,-3.6787,-3.6726,-3.6838,-3.6863,-3.7023,-3.7118,-3.6944,-3.6955,-3.7445,-3.7455,-3.7464,-3.7578,0,0,0,0,0,0,-3.6339,-3.638,-3.6453,-3.6529,-3.6567,-3.6792,-3.6684,-3.6689,-3.6751,-3.6741,-3.6822,-3.683,-3.6835,-3.7005,-3.7035,-3.7131,-3.6964,-3.7436,-3.7449,-3.7461,-3.7566,-3.7591,-3.7612,0,0,0,0,0,-3.6326,-3.6478,-3.6457,-3.6491,-3.666,-3.6798,-3.682,-3.6823,-3.6758,-3.6833,-3.6866,-3.6827,-3.7102,-3.7022,-3.7055,-3.7156,-3.743,-3.7445,-3.746,-3.7556,-3.7586,-3.7611,0,0,0,0,0,0,-3.6411,-3.6488,-3.6466,-3.6646,-3.6716,-3.6786,-3.688,-3.6854,-3.6943,-3.6931,-3.6931,-3.695,-3.7115,-3.7151,-3.706,-3.7348,-3.7256,-3.7279,-3.7318,-3.7347,-3.737,-3.7358,-3.6974,0,0,0,0,0,-3.6451,-3.6557,-3.6618,-3.6772,-3.6808,-3.6839,-3.6899,-3.6896,-3.6968,-3.6997,-3.7042,-3.7113,-3.7216,-3.7283,-3.738,-3.7571,-3.7588,-3.7657,-3.768,-3.7699,-3.7718,-3.7823,-3.7855,-3.7516,-3.7516,-3.7515,0,0,-3.6534,-3.6589,-3.6656,-3.6791,-3.6844,-3.6955,-3.6864,-3.6983,-3.7066,-3.7015,-3.7169,-3.7205,-3.7284,-3.7461,-3.7541,-3.7496,-3.7816,-3.7717,-3.7732,-3.7741,-3.7842,-3.7874,-3.7903,-3.7526,-3.7524,-3.7522,0,0,-3.6743,-3.6795,-3.693,-3.6986,-3.7069,-3.7088,-3.7121,-3.7196,-3.7218,-3.7372,-3.7337,-3.7435,-3.7611,-3.767,-3.7723,-3.7957,-3.7924,-3.7988,-3.8108,-3.821,-3.8237,-3.8261,-3.8346,-3.8376,-3.8007,-3.8007,-3.8007,0,-3.6836,-3.7001,-3.7002,-3.7126,-3.7187,-3.7147,-3.7284,-3.7338,-3.7449,-3.7492,-3.7441,-3.7663,-3.7713,-3.7904,-3.7961,-3.8005,-3.8043,-3.7979,-3.8233,-3.8257,-3.8279,-3.836,-3.8392,-3.8015,-3.8014,-3.8013,-3.8012,0,-3.7112,-3.7227,-3.7326,-3.7435,-3.7507,-3.7637,-3.7658,-3.7731,-3.7722,-3.7747,-3.7906,-3.7966,-3.8075,-3.812,-3.8112,-3.8311,-3.8281,-3.8232,-3.814,-3.8319,-3.8395,-3.8426,-3.8025,-3.8022,-3.802,-3.8018,0,0,-3.7378,-3.7488,-3.7524,-3.7574,-3.7664,-3.7753,-3.7881,-3.7989,-3.8053,-3.813,-3.8239,-3.839,-3.8346,-3.8406,-3.8404,-3.8495,-3.8678,-3.8435,-3.8436,-3.8479,-3.8903,-3.894,-3.8976,-3.8657,-3.8663,-3.8668,-3.8896,0,-3.7594,-3.7821,-3.7826,-3.8034,-3.8141,-3.8106,-3.8218,-3.8286,-3.8313,-3.8408,-3.8437,-3.8546,-3.8478,-3.8515,-3.8602,-3.8637,-3.8763,-3.8621,-3.8759,-3.8764,-3.8741,-3.9015,-3.9054,-3.9267,-3.8926,-3.8931,-3.8935,0,-3.7877,-3.7965,-3.8184,-3.826,-3.8306,-3.8407,-3.8507,-3.8598,-3.8675,-3.8688,-3.8757,-3.8742,-3.8875,-3.8778,-3.8961,-3.8864,-3.8921,-3.8947,-3.8955,-3.8969,-3.8861,-3.9037,-3.9335,-3.9367,-3.8981,-3.8977,-3.8974,0,-3.8051,-3.8224,-3.8378,-3.8422,-3.8514,-3.8586,-3.8628,-3.8699,-3.8764,-3.8852,-3.8895,-3.8996,-3.9052,-3.9132,-3.9145,-3.9074,-3.933,-3.9234,-3.9345,-3.9345,-3.9401,-3.9397,-3.9713,-3.9436,-3.9436,-3.9435,-3.9434,0,-3.8292,-3.8428,-3.8458,-3.8553,-3.8704,-3.871,-3.8859,-3.8895,-3.8959,-3.906,-3.9035,-3.9131,-3.9143,-3.9242,-3.9254,-3.9404,-3.9429,-3.9444,-3.9446,-3.9447,-3.9446,-3.9485,-3.9471,-3.9444,-3.9442,-3.944,-3.9439,0,-3.8512,-3.8537,-3.8703,-3.8778,-3.88,-3.8908,-3.8972,-3.9063,-3.9088,-3.9217,-3.9248,-3.9288,-3.9403,-3.9425,-3.9561,-3.9568,-3.9749,-3.9735,-3.9723,-3.9722,-3.9833,-3.9822,-4.0185,-4.0234,-3.9925,-3.9927,-3.993,0,-3.8664,-3.8768,-3.8855,-3.8922,-3.8968,-3.9075,-3.9142,-3.9152,-3.9223,-3.932,-3.9399,-3.9513,-3.9604,-3.979,-3.9831,-3.9936,-3.9925,-4.0045,-3.994,-3.9939,-3.9928,-3.9922,-3.9933,-4.0065,-4.0068,-4.0071,-4.0073,0,-3.8934,-3.8942,-3.904,-3.9144,-3.9225,-3.9306,-3.9384,-3.944,-3.946,-3.9541,-3.966,-3.9731,-3.9871,-3.9984,-4.0089,-4.0132,-4.0107,-4.0106,-4.0137,-4.014,-4.013,-4.0138,-3.9779,-4.0097,-4.0095,-4.0093,-4.0092,-4.0091,-3.9125,-3.9217,-3.9293,-3.9404,-3.9463,-3.9537,-3.9627,-3.9664,-3.9764,-3.9879,-3.9879,-4.0009,-4.0084,-4.0222,-4.0272,-4.0375,-4.0336,-4.0382,-4.0393,-4.0405,-4.0416,-4.0113,-4.0393,-4.0393,-4.0392,-4.0392,-4.0391,0,-3.9394,-3.9442,-3.9544,-3.9654,-3.9742,-3.9711,-3.9796,-3.9871,-3.9987,-4.0059,-4.015,-4.0287,-4.0398,-4.0448,-4.0557,-4.0629,-4.0621,-4.0657,-4.0652,-4.0663,-4.0443,-4.0405,-4.0663,-4.0663,-4.0663,-4.0663,-4.0662,-4.0662,-3.9544,-3.9698,-3.9716,-3.9899,-3.9946,-4.0074,-4.0126,-4.0194,-4.0252,-4.0407,-4.0499,-4.0531,-4.0596,-4.0709,-4.0809,-4.0821,-4.0863,-4.0906,-4.0912,-4.0706,-4.0678,-4.0652,-4.0617,-4.0914,-4.0915,-4.1124,-4.1126,-4.1128]},{"header":{"parameterUnit":"m.s-1","parameterCategory":1,"la1":30.2991,"la2":30.254,"lo1":-89.0895,"lo2":-89.0444,"dy":0.0017,"dx":0.0017,"nx":28,"ny":28,"refTime":"2024-10-05T21:00:00:Z","depth":0,"parameterNumber":3,"parameterNumberName":"V-component_of_WINDS"},"data":[0,0,0,0,0,0,0,0,0,0,0,0,0,0,0,0,0,0,0,0,0,0,0,0,0,0,0,0,0,0,0,0,0,0,0,0,0,0,0,0,0,0,0,0,0,0,0,0,0,0,0,0,0,0,0,0,0,0,-2.8537,-2.8537,0,-2.8471,-2.847,-2.847,-2.8393,-2.8392,-2.8391,-2.839,-2.8323,-2.8322,-2.8321,0,0,0,0,0,0,0,0,0,0,0,0,0,-2.8597,-2.8597,-2.8537,-2.8537,-2.8536,-2.8471,-2.847,-2.8469,-2.8394,-2.8392,-2.8391,-2.839,-2.8323,-2.8322,-2.8321,0,0,0,0,0,0,0,0,0,0,0,0,0,-2.8555,-2.8596,-2.8538,-2.849,-2.8485,-2.8471,-2.847,-2.8469,-2.8394,-2.8392,-2.839,-2.8389,-2.8323,-2.8322,-2.8321,-2.8349,0,0,-2.8318,-2.8317,0,0,0,0,0,0,0,0,-2.8558,-2.8553,-2.8498,-2.8493,-2.8488,-2.8439,-2.8467,-2.8429,-2.8394,-2.8429,-2.839,-2.8388,-2.8363,-2.8358,-2.835,-2.8346,-2.8343,-2.8318,-2.8317,-2.8317,-2.8316,0,0,0,0,0,0,0,-2.8561,-2.8556,-2.8511,-2.8497,-2.8491,-2.8472,-2.8464,-2.8459,-2.8406,-2.8425,-2.842,-2.8413,-2.836,-2.8351,-2.8348,-2.8342,-2.8318,-2.8317,-2.8316,-2.8316,-2.8355,-2.8356,0,0,0,0,0,0,-2.8571,-2.8559,-2.8513,-2.8509,-2.8519,-2.8472,-2.8463,-2.8456,-2.8406,-2.8397,-2.8414,-2.841,-2.8354,-2.8349,-2.8345,-2.8372,-2.8317,-2.8316,-2.8315,-2.8353,-2.8355,-2.8357,0,0,0,0,0,0,-2.8572,-2.8568,-2.8516,-2.8532,-2.8524,-2.8473,-2.8466,-2.8456,-2.8447,-2.8398,-2.8388,-2.8415,-2.8352,-2.8346,-2.8348,-2.8369,-2.8315,-2.8314,-2.8351,-2.8353,-2.8356,-2.8429,0,0,0,0,0,0,-2.8575,-2.8569,-2.8579,-2.8533,-2.8524,-2.8521,-2.8467,-2.8456,-2.8445,-2.8438,-2.8396,-2.8387,-2.835,-2.835,-2.8347,-2.8366,-2.8313,-2.8349,-2.8352,-2.8355,-2.8424,-2.8433,-2.8441,0,0,0,0,0,-2.8577,-2.8603,-2.858,-2.8575,-2.8535,-2.8522,-2.8516,-2.8473,-2.8447,-2.8457,-2.8425,-2.8389,-2.8367,-2.8351,-2.8346,-2.8366,-2.8347,-2.8351,-2.8355,-2.842,-2.8431,-2.8441,0,0,0,0,0,0,-2.8653,-2.8596,-2.857,-2.8582,-2.8557,-2.8509,-2.852,-2.8487,-2.847,-2.8464,-2.8411,-2.8402,-2.841,-2.8388,-2.8371,-2.8389,-2.8352,-2.8355,-2.8403,-2.8413,-2.8422,-2.8426,-2.8312,0,0,0,0,0,-2.8671,-2.8665,-2.8615,-2.863,-2.8619,-2.8572,-2.8565,-2.8533,-2.8506,-2.8495,-2.8463,-2.8438,-2.8425,-2.8418,-2.8404,-2.842,-2.8409,-2.8432,-2.844,-2.8448,-2.8451,-2.8456,-2.8465,-2.8369,-2.8369,-2.8369,0,0,-2.8709,-2.8677,-2.8676,-2.8645,-2.8622,-2.8616,-2.8564,-2.8561,-2.8555,-2.8495,-2.8493,-2.8469,-2.8437,-2.8446,-2.8448,-2.8428,-2.8475,-2.8453,-2.8459,-2.8458,-2.8461,-2.847,-2.8478,-2.8372,-2.8371,-2.8371,0,0,-2.8774,-2.875,-2.8759,-2.8737,-2.8702,-2.867,-2.8673,-2.8629,-2.861,-2.8608,-2.8562,-2.8555,-2.8535,-2.8513,-2.85,-2.8555,-2.852,-2.8552,-2.8596,-2.8602,-2.861,-2.8616,-2.8634,-2.8642,-2.8555,-2.8555,-2.8555,0,-2.8825,-2.8814,-2.8768,-2.8766,-2.8753,-2.8697,-2.8705,-2.8686,-2.865,-2.8642,-2.862,-2.8592,-2.8566,-2.8568,-2.8581,-2.8573,-2.8573,-2.8556,-2.8612,-2.8618,-2.8624,-2.864,-2.8647,-2.8559,-2.8559,-2.8558,-2.8558,0,-2.8878,-2.8871,-2.8883,-2.8848,-2.8836,-2.884,-2.8793,-2.8786,-2.8756,-2.8726,-2.8723,-2.8691,-2.8668,-2.8666,-2.8637,-2.8664,-2.8652,-2.8622,-2.8583,-2.8637,-2.8652,-2.8658,-2.8565,-2.8564,-2.8562,-2.8561,0,0,-2.899,-2.8928,-2.8933,-2.8915,-2.8873,-2.8867,-2.8867,-2.8844,-2.8839,-2.8815,-2.8814,-2.8797,-2.8768,-2.8753,-2.872,-2.8726,-2.8769,-2.8694,-2.8693,-2.8708,-2.8794,-2.8817,-2.8825,-2.8746,-2.8747,-2.8748,-2.8796,0,-2.9047,-2.9044,-2.9001,-2.901,-2.9003,-2.8948,-2.8948,-2.8922,-2.8894,-2.8883,-2.8851,-2.884,-2.8804,-2.8794,-2.8796,-2.8763,-2.8785,-2.8759,-2.8743,-2.8743,-2.8752,-2.8833,-2.8857,-2.8904,-2.8802,-2.8803,-2.8804,0,-2.9113,-2.9092,-2.9101,-2.9056,-2.9051,-2.9052,-2.9026,-2.9017,-2.8985,-2.8964,-2.8946,-2.8909,-2.8905,-2.8869,-2.8862,-2.8845,-2.8836,-2.8819,-2.8819,-2.8816,-2.8776,-2.883,-2.8919,-2.8926,-2.8813,-2.8812,-2.8811,0,-2.9193,-2.9167,-2.9168,-2.9155,-2.9103,-2.9104,-2.9083,-2.905,-2.9038,-2.9016,-2.9007,-2.8985,-2.8973,-2.8956,-2.8913,-2.8891,-2.8911,-2.8872,-2.8893,-2.8894,-2.8899,-2.8899,-2.8986,-2.8895,-2.8895,-2.8894,-2.8894,0,-2.926,-2.9267,-2.9202,-2.9203,-2.9209,-2.9158,-2.9165,-2.9138,-2.9109,-2.9103,-2.9055,-2.905,-2.8994,-2.8982,-2.8949,-2.8947,-2.8943,-2.8925,-2.8915,-2.8928,-2.8931,-2.8921,-2.8916,-2.8896,-2.8896,-2.8896,-2.8895,0,-2.935,-2.9307,-2.9304,-2.9255,-2.9243,-2.9249,-2.9206,-2.9204,-2.9172,-2.9165,-2.916,-2.9111,-2.9094,-2.905,-2.9023,-2.9,-2.9007,-2.8991,-2.9018,-2.9012,-2.9035,-2.9033,-2.9118,-2.9126,-2.9031,-2.9032,-2.9033,0,-2.9396,-2.9399,-2.935,-2.9342,-2.9323,-2.9311,-2.9298,-2.9249,-2.9238,-2.9201,-2.9203,-2.9183,-2.9164,-2.914,-2.9101,-2.9079,-2.9061,-2.9092,-2.9058,-2.907,-2.906,-2.906,-2.9059,-2.91,-2.9101,-2.9102,-2.9103,0,-2.9481,-2.9459,-2.9443,-2.9418,-2.9405,-2.9383,-2.9359,-2.9356,-2.93,-2.9289,-2.9272,-2.9257,-2.9228,-2.9208,-2.918,-2.9157,-2.9121,-2.9115,-2.9118,-2.9131,-2.9146,-2.9136,-2.9038,-2.9113,-2.9112,-2.9111,-2.9111,-2.911,-2.9549,-2.9549,-2.9514,-2.9497,-2.9473,-2.9451,-2.9446,-2.9413,-2.9398,-2.937,-2.9342,-2.9327,-2.9293,-2.9251,-2.923,-2.9217,-2.9198,-2.9204,-2.9205,-2.9207,-2.9212,-2.9148,-2.9212,-2.9212,-2.9212,-2.9211,-2.9211,0,-2.963,-2.9604,-2.9589,-2.9557,-2.9543,-2.9509,-2.9481,-2.9471,-2.9459,-2.943,-2.9412,-2.9391,-2.937,-2.9329,-2.9305,-2.9302,-2.9285,-2.9298,-2.9297,-2.9292,-2.9231,-2.923,-2.9312,-2.9312,-2.9312,-2.9312,-2.9312,-2.9312,-2.9671,-2.9669,-2.9643,-2.9628,-2.9601,-2.9586,-2.9572,-2.9551,-2.9528,-2.9506,-2.9489,-2.9462,-2.9428,-2.9401,-2.938,-2.9368,-2.9361,-2.9379,-2.9362,-2.9306,-2.9296,-2.9287,-2.9286,-2.9378,-2.9378,-2.9423,-2.9424,-2.9424]}]]